N-2 R/B

Satellite information

Favourite Embed

Satellite Type and Status

ROCKET BODYIN ORBIT

Key statistics

Satellite N-2 R/B at a glance.

Uptime

14078

Days in orbit

Revolutions

≈ 14.5

Per day

Orbit

SSO

Sun Synchronous Orbit

Inclination

97.4

Latest

Satellite identification and parameters

Extended collection of information and parameters for N-2 R/B.

Object identification

Identified? True

Debris? False

Object name: N-2 R/B

International designator: 1987-018B

Object number (NORAD): 17528

Object ID (CCSDS): 17528

Country: JAPAN (JPN)

Current information (Y/N): Y

RCS size: LARGE

Orbital parameters

Period: 99.029 minutes

Inclination: 97.4101 deg

SMA: 7090.369 km

Apoapsis: 814.145 km

Periapsis: 610.323 km

RAAN: 268.9151 deg

Eccentricy: 0.01437316

Argument of periapsis: 241.7666 deg

Mean anomaly: 116.896 deg

Mean motion: 14.54117368 rev/day

Mean motion (dot): 0.00000849 rev/day2

B* drag term: 0.00018452023 1/REarth

Two-line elements (TLE)

Creation date: Sept. 4, 2025, 10:13 a.m.

Reference frame: TEME

Reference center: EARTH

Epoch: Sept. 4, 2025, 12:59 a.m. UTC

TLE line 0: 0 N-2 R/B

TLE line 1: 1 17528U 87018B 25247.04099072 .00000849 00000-0 18452-3 0 9992

TLE line 2: 2 17528 97.4101 268.9151 0143732 241.7666 116.8960 14.54117368 14591

Live tracking on map

Real-time ground track for satellite N-2 R/B.

In-orbit conjunctions

A list of the most updated potential collisions computed for object N-2 R/B.

Target Orbit TCA Probability of collision Miss distance Type
FENGYUN 1C DEB SSO 2024-12-06 16:46:19 0.0002485937 558.0 (m) DEBRIS

Associated space launch

Japanese Earth observation satellite

N-2 R/B was lifted into orbit during the mission ‘N-2 | Momo 1a’, on board a N-2 space rocket.

The launch took place on Feb. 19, 1987, 1:23 a.m. from Osaki Launch Complex.

For more information about the launch, click the button.

Launch to space N-2 | Momo 1a
N-2 | Momo 1a

Agency: N/A

Status: Launch Successful

Launch date: Feb. 19, 1987, 1:23 a.m. UTC

Rocket: N-2

Launch pad: Osaki Launch Complex

Location: Tanegashima Space Center, Japan

...

Latest news about this satellite

There are no fresh news available about this satellite. Check back as we update our databases every day.


Newsletter sign-up

Weekly statistics, charts and insights to help you stay on top of the space industry.